| time (UTC) | temp F | wind direction | speed MPH | gust MPH | rain 1hr in | rain 24hr in | rain mn in | humidity % | barometer mb |
| 20260506073327 | 64 | 179 | 0.0 | 3.0 | 0.00 | 0.00 | 0.00 | 40 | 1016.3 |
| 20260506072824 | 64 | 139 | 2.0 | 2.0 | 0.00 | 0.00 | 0.00 | 40 | 1016.5 |
| 20260506072321 | 64 | 140 | 3.0 | 3.0 | 0.00 | 0.00 | 0.00 | 40 | 1016.2 |
| 20260506071819 | 63 | 136 | 1.0 | 3.0 | 0.00 | 0.00 | 0.00 | 42 | 1016.2 |
| 20260506071317 | 65 | 185 | 0.0 | 3.0 | 0.00 | 0.00 | 0.00 | 39 | 1016.0 |
| 20260506070813 | 64 | 14 | 0.0 | 3.0 | 0.00 | 0.00 | 0.00 | 40 | 1016.1 |
| 20260506070310 | 61 | 165 | 0.0 | 3.0 | 0.00 | 0.00 | 0.00 | 43 | 1016.2 |
| 20260506062248 | 60 | 34 | 0.0 | 2.0 | 0.00 | 0.00 | 0.00 | 46 | 1015.8 |
| 20260506061743 | 60 | 72 | 2.0 | 2.0 | 0.00 | 0.00 | 0.00 | 46 | 1015.5 |
| 20260506061241 | 60 | 180 | 0.0 | 3.0 | 0.00 | 0.00 | 0.00 | 46 | 1015.7 |
| 20260506060739 | 61 | 89 | 1.0 | 3.0 | 0.00 | 0.00 | 0.00 | 44 | 1015.6 |
| 20260506060236 | 61 | 109 | 1.0 | 3.0 | 0.00 | 0.00 | 0.00 | 43 | 1015.7 |
| 20260506051203 | 62 | 82 | 0.0 | 2.0 | 0.00 | 0.00 | 0.00 | 41 | 1015.5 |
| 20260506050701 | 62 | 31 | 1.0 | 2.0 | 0.00 | 0.00 | 0.00 | 41 | 1015.3 |
| 20260506050158 | 63 | 63 | 0.0 | 2.0 | 0.00 | 0.00 | 0.00 | 40 | 1015.2 |
| 20260506044643 | 65 | 157 | 0.0 | 1.0 | 0.00 | 0.00 | 0.00 | 36 | 1015.1 |
| 20260506044140 | 65 | 119 | 0.0 | 2.0 | 0.00 | 0.00 | 0.00 | 36 | 1015.2 |
| 20260506043637 | 66 | 80 | 1.0 | 2.0 | 0.00 | 0.00 | 0.00 | 35 | 1014.9 |
| 20260506043135 | 66 | 99 | 1.0 | 2.0 | 0.00 | 0.00 | 0.00 | 34 | 1014.8 |
| 20260506042634 | 67 | 60 | 2.0 | 2.0 | 0.00 | 0.00 | 0.00 | 33 | 1015.0 |
| 20260506042131 | 67 | 140 | 0.0 | 1.0 | 0.00 | 0.00 | 0.00 | 33 | 1014.9 |
| 20260506041630 | 67 | 129 | 0.0 | 2.0 | 0.00 | 0.00 | 0.00 | 33 | 1015.0 |
| 20260506041126 | 68 | 142 | 0.0 | 2.0 | 0.00 | 0.00 | 0.00 | 32 | 1014.9 |
| 20260506040624 | 69 | 153 | 1.0 | 3.0 | 0.00 | 0.00 | 0.00 | 31 | 1014.8 |
| 20260506040120 | 70 | 188 | 2.0 | 4.0 | 0.00 | 0.00 | 0.00 | 30 | 1014.6 |
| 20260506035617 | 71 | 133 | 2.0 | 3.0 | 0.00 | 0.00 | 0.00 | 30 | 1014.7 |
| 20260506035114 | 71 | 238 | 2.0 | 7.0 | 0.00 | 0.00 | 0.00 | 29 | 1014.7 |
| 20260506034611 | 71 | 232 | 7.0 | 7.0 | 0.00 | 0.00 | 0.00 | 29 | 1014.6 |
| 20260506034108 | 71 | 249 | 2.0 | 4.0 | 0.00 | 0.00 | 0.00 | 29 | 1014.4 |
| 20260506033605 | 71 | 236 | 4.0 | 7.0 | 0.00 | 0.00 | 0.00 | 28 | 1014.5 |
| 20260506033102 | 71 | 277 | 2.0 | 8.0 | 0.00 | 0.00 | 0.00 | 28 | 1014.5 |
| 20260506032559 | 71 | 265 | 2.0 | 5.0 | 0.00 | 0.00 | 0.00 | 28 | 1014.4 |
| 20260506032056 | 71 | 257 | 2.0 | 7.0 | 0.00 | 0.00 | 0.00 | 27 | 1014.2 |
| 20260506031553 | 71 | 246 | 2.0 | 7.0 | 0.00 | 0.00 | 0.00 | 28 | 1014.2 |
| 20260506031050 | 71 | 309 | 0.0 | 7.0 | 0.00 | 0.00 | 0.00 | 28 | 1014.1 |
| 20260506030548 | 71 | 252 | 0.0 | 9.0 | 0.00 | 0.00 | 0.00 | 28 | 1014.1 |
| 20260506030045 | 72 | 263 | 6.0 | 8.0 | 0.00 | 0.00 | 0.00 | 27 | 1013.9 |
| 20260506025542 | 72 | 262 | 5.0 | 10.0 | 0.00 | 0.00 | 0.00 | 26 | 1013.8 |
| 20260506025038 | 72 | 241 | 2.0 | 5.0 | 0.00 | 0.00 | 0.00 | 27 | 1013.8 |
| 20260506024536 | 72 | 252 | 7.0 | 10.0 | 0.00 | 0.00 | 0.00 | 26 | 1013.8 |
| 20260506024032 | 72 | 274 | 4.0 | 8.0 | 0.00 | 0.00 | 0.00 | 27 | 1013.7 |
| 20260506023528 | 72 | 334 | 3.0 | 6.0 | 0.00 | 0.00 | 0.00 | 27 | 1013.5 |
| 20260506023026 | 73 | 253 | 3.0 | 7.0 | 0.00 | 0.00 | 0.00 | 26 | 1013.4 |
| 20260506022523 | 73 | 246 | 3.0 | 10.0 | 0.00 | 0.00 | 0.00 | 27 | 1013.7 |
| 20260506022020 | 72 | 233 | 3.0 | 5.0 | 0.00 | 0.00 | 0.00 | 27 | 1013.5 |
| 20260506021518 | 73 | 267 | 4.0 | 10.0 | 0.00 | 0.00 | 0.00 | 26 | 1013.4 |
| 20260506021015 | 73 | 280 | 6.0 | 9.0 | 0.00 | 0.00 | 0.00 | 26 | 1013.2 |
| 20260506020512 | 73 | 215 | 4.0 | 8.0 | 0.00 | 0.00 | 0.00 | 26 | 1013.2 |
| 20260506020010 | 73 | 236 | 4.0 | 9.0 | 0.00 | 0.00 | 0.00 | 26 | 1013.0 |
| 20260506015507 | 73 | 272 | 7.0 | 12.0 | 0.00 | 0.00 | 0.00 | 26 | 1013.0 |
| 20260506015003 | 74 | 252 | 5.0 | 9.0 | 0.00 | 0.00 | 0.00 | 26 | 1012.8 |
| 20260506014500 | 74 | 260 | 4.0 | 12.0 | 0.00 | 0.00 | 0.00 | 26 | 1012.7 |
| 20260506013957 | 74 | 280 | 2.0 | 13.0 | 0.00 | 0.00 | 0.00 | 26 | 1012.6 |
| 20260506013455 | 74 | 232 | 8.0 | 13.0 | 0.00 | 0.00 | 0.00 | 26 | 1012.4 |
| 20260506012950 | 74 | 249 | 5.0 | 13.0 | 0.00 | 0.00 | 0.00 | 25 | 1012.8 |
| 20260506012447 | 75 | 247 | 6.0 | 13.0 | 0.00 | 0.00 | 0.00 | 25 | 1012.8 |
| 20260506011944 | 75 | 221 | 4.0 | 8.0 | 0.00 | 0.00 | 0.00 | 26 | 1012.7 |
| 20260506011442 | 75 | 243 | 8.0 | 12.0 | 0.00 | 0.00 | 0.00 | 26 | 1012.6 |
| 20260506010938 | 75 | 253 | 6.0 | 11.0 | 0.00 | 0.00 | 0.00 | 26 | 1012.7 |
| 20260506010437 | 75 | 258 | 4.0 | 14.0 | 0.00 | 0.00 | 0.00 | 25 | 1012.3 |
| 20260506005933 | 76 | 237 | 5.0 | 19.0 | 0.00 | 0.00 | 0.00 | 25 | 1012.5 |
| 20260506005431 | 76 | 330 | 2.0 | 9.0 | 0.00 | 0.00 | 0.00 | 25 | 1012.7 |
| 20260506004926 | 77 | 269 | 11.0 | 15.0 | 0.00 | 0.00 | 0.00 | 25 | 1012.5 |
| 20260506004424 | 76 | 258 | 6.0 | 12.0 | 0.00 | 0.00 | 0.00 | 25 | 1012.3 |
| 20260506003920 | 76 | 291 | 4.0 | 9.0 | 0.00 | 0.00 | 0.00 | 27 | 1012.4 |
| 20260506003417 | 77 | 313 | 3.0 | 7.0 | 0.00 | 0.00 | 0.00 | 26 | 1012.5 |
| 20260506002913 | 76 | 234 | 6.0 | 13.0 | 0.00 | 0.00 | 0.00 | 27 | 1012.5 |
| 20260506002409 | 77 | 235 | 7.0 | 10.0 | 0.00 | 0.00 | 0.00 | 26 | 1012.2 |
| 20260506001905 | 77 | 226 | 7.0 | 13.0 | 0.00 | 0.00 | 0.00 | 27 | 1012.3 |
| 20260506001402 | 77 | 258 | 11.0 | 18.0 | 0.00 | 0.00 | 0.00 | 26 | 1012.2 |
| 20260506000859 | 77 | 267 | 4.0 | 9.0 | 0.00 | 0.00 | 0.00 | 27 | 1012.3 |
| 20260506000357 | 76 | 248 | 3.0 | 11.0 | 0.00 | 0.00 | 0.00 | 27 | 1012.2 |
| 20260505235853 | 77 | 201 | 7.0 | 14.0 | 0.00 | 0.00 | 0.00 | 28 | 1012.1 |
| 20260505235351 | 77 | 278 | 5.0 | 13.0 | 0.00 | 0.00 | 0.00 | 27 | 1012.3 |
| 20260505234848 | 78 | 238 | 3.0 | 11.0 | 0.00 | 0.00 | 0.00 | 27 | 1012.2 |
| 20260505234346 | 78 | 135 | 0.0 | 10.0 | 0.00 | 0.00 | 0.00 | 27 | 1012.2 |
| 20260505233842 | 77 | 228 | 8.0 | 13.0 | 0.00 | 0.00 | 0.00 | 26 | 1012.4 |
| 20260505233340 | 76 | 217 | 12.0 | 15.0 | 0.00 | 0.00 | 0.00 | 26 | 1012.2 |
| 20260505232837 | 77 | 258 | 5.0 | 9.0 | 0.00 | 0.00 | 0.00 | 26 | 1012.5 |
| 20260505232335 | 77 | 231 | 7.0 | 16.0 | 0.00 | 0.00 | 0.00 | 26 | 1012.1 |
| 20260505231831 | 76 | 238 | 4.0 | 16.0 | 0.00 | 0.00 | 0.00 | 27 | 1012.0 |
| 20260505231329 | 77 | 226 | 5.0 | 14.0 | 0.00 | 0.00 | 0.00 | 28 | 1012.3 |
| 20260505230827 | 76 | 308 | 4.0 | 12.0 | 0.00 | 0.00 | 0.00 | 27 | 1012.2 |
| 20260505230324 | 77 | 221 | 7.0 | 17.0 | 0.00 | 0.00 | 0.00 | 28 | 1012.5 |
| 20260505225821 | 77 | 245 | 7.0 | 12.0 | 0.00 | 0.00 | 0.00 | 27 | 1012.5 |
| 20260505225318 | 77 | 243 | 5.0 | 11.0 | 0.00 | 0.00 | 0.00 | 28 | 1012.5 |
| 20260505224813 | 74 | 247 | 5.0 | 8.0 | 0.00 | 0.00 | 0.00 | 29 | 1012.4 |
| 20260505224311 | 75 | 205 | 9.0 | 9.0 | 0.00 | 0.00 | 0.00 | 29 | 1012.5 |
| 20260505223808 | 75 | 264 | 4.0 | 12.0 | 0.00 | 0.00 | 0.00 | 29 | 1012.7 |
| 20260505223305 | 78 | 231 | 14.0 | 17.0 | 0.00 | 0.00 | 0.00 | 27 | 1012.7 |
| 20260505222800 | 76 | 178 | 4.0 | 14.0 | 0.00 | 0.00 | 0.00 | 28 | 1012.6 |
| 20260505222257 | 75 | 158 | 3.0 | 11.0 | 0.00 | 0.00 | 0.00 | 28 | 1012.7 |
| 20260505221754 | 77 | 223 | 5.0 | 13.0 | 0.00 | 0.00 | 0.00 | 27 | 1012.7 |
| 20260505221251 | 78 | 249 | 5.0 | 14.0 | 0.00 | 0.00 | 0.00 | 28 | 1013.0 |
| 20260505220747 | 78 | 218 | 13.0 | 15.0 | 0.00 | 0.00 | 0.00 | 26 | 1012.8 |
| 20260505220245 | 78 | 249 | 14.0 | 16.0 | 0.00 | 0.00 | 0.00 | 28 | 1012.8 |
| 20260505215743 | 77 | 228 | 4.0 | 20.0 | 0.00 | 0.00 | 0.00 | 30 | 1013.0 |
| 20260505215240 | 78 | 221 | 6.0 | 19.0 | 0.00 | 0.00 | 0.00 | 29 | 1012.8 |
| 20260505214738 | 77 | 264 | 4.0 | 9.0 | 0.00 | 0.00 | 0.00 | 26 | 1013.0 |
| 20260505214235 | 76 | 222 | 8.0 | 14.0 | 0.00 | 0.00 | 0.00 | 28 | 1013.2 |
| 20260505213732 | 77 | 225 | 7.0 | 16.0 | 0.00 | 0.00 | 0.00 | 27 | 1013.1 |
| 20260505213229 | 79 | 282 | 3.0 | 8.0 | 0.00 | 0.00 | 0.00 | 27 | 1013.1 |
| 20260505212725 | 77 | 240 | 5.0 | 14.0 | 0.00 | 0.00 | 0.00 | 28 | 1012.8 |
| 20260505212223 | 77 | 334 | 4.0 | 8.0 | 0.00 | 0.00 | 0.00 | 28 | 1013.1 |
| 20260505211720 | 77 | 274 | 7.0 | 14.0 | 0.00 | 0.00 | 0.00 | 28 | 1013.2 |
| 20260505211217 | 77 | 260 | 3.0 | 12.0 | 0.00 | 0.00 | 0.00 | 30 | 1013.3 |
| 20260505210713 | 77 | 306 | 1.0 | 8.0 | 0.00 | 0.00 | 0.00 | 29 | 1013.3 |
| 20260505210210 | 76 | 266 | 6.0 | 12.0 | 0.00 | 0.00 | 0.00 | 29 | 1013.5 |
| 20260505205708 | 77 | 303 | 2.0 | 11.0 | 0.00 | 0.00 | 0.00 | 32 | 1013.8 |
| 20260505205206 | 77 | 247 | 8.0 | 17.0 | 0.00 | 0.00 | 0.00 | 29 | 1013.7 |
| 20260505204702 | 76 | 248 | 8.0 | 12.0 | 0.00 | 0.00 | 0.00 | 29 | 1013.7 |
| 20260505204200 | 77 | 257 | 5.0 | 9.0 | 0.00 | 0.00 | 0.00 | 28 | 1013.7 |
| 20260505203657 | 77 | 203 | 3.0 | 8.0 | 0.00 | 0.00 | 0.00 | 30 | 1013.7 |
| 20260505203154 | 77 | 225 | 9.0 | 18.0 | 0.00 | 0.00 | 0.00 | 30 | 1013.6 |
| 20260505202649 | 76 | 177 | 3.0 | 11.0 | 0.00 | 0.00 | 0.00 | 30 | 1013.7 |
| 20260505202146 | 75 | 230 | 3.0 | 12.0 | 0.00 | 0.00 | 0.00 | 33 | 1013.6 |
| 20260505201642 | 74 | 247 | 4.0 | 16.0 | 0.00 | 0.00 | 0.00 | 34 | 1013.8 |
| 20260505201141 | 74 | 247 | 5.0 | 12.0 | 0.00 | 0.00 | 0.00 | 34 | 1013.8 |
| 20260505200638 | 76 | 199 | 5.0 | 9.0 | 0.00 | 0.00 | 0.00 | 33 | 1013.8 |
| 20260505200135 | 76 | 267 | 7.0 | 14.0 | 0.00 | 0.00 | 0.00 | 32 | 1014.1 |
| 20260505195631 | 76 | 240 | 7.0 | 16.0 | 0.00 | 0.00 | 0.00 | 34 | 1014.0 |
| 20260505195128 | 75 | 271 | 2.0 | 9.0 | 0.00 | 0.00 | 0.00 | 36 | 1013.9 |
| 20260505194625 | 74 | 309 | 4.0 | 13.0 | 0.00 | 0.00 | 0.00 | 36 | 1014.1 |
| 20260505194121 | 76 | 309 | 4.0 | 12.0 | 0.00 | 0.00 | 0.00 | 35 | 1013.9 |
| 20260505193613 | 75 | 198 | 3.0 | 8.0 | 0.00 | 0.00 | 0.00 | 38 | 1013.9 |
| 20260505193110 | 75 | 127 | 2.0 | 4.0 | 0.00 | 0.00 | 0.00 | 35 | 1013.9 |
| 20260505192609 | 76 | 215 | 5.0 | 15.0 | 0.00 | 0.00 | 0.00 | 36 | 1014.3 |
| 20260505192106 | 76 | 254 | 6.0 | 12.0 | 0.00 | 0.00 | 0.00 | 35 | 1014.1 |
| 20260505191604 | 75 | 233 | 5.0 | 12.0 | 0.00 | 0.00 | 0.00 | 38 | 1014.2 |
| 20260505191102 | 75 | 166 | 3.0 | 11.0 | 0.00 | 0.00 | 0.00 | 41 | 1014.1 |
| 20260505190601 | 75 | 222 | 3.0 | 8.0 | 0.00 | 0.00 | 0.00 | 39 | 1014.3 |
| 20260505190057 | 75 | 249 | 5.0 | 11.0 | 0.00 | 0.00 | 0.00 | 37 | 1014.3 |
| 20260505185555 | 75 | 213 | 5.0 | 7.0 | 0.00 | 0.00 | 0.00 | 39 | 1014.4 |
| 20260505185051 | 75 | 233 | 5.0 | 15.0 | 0.00 | 0.00 | 0.00 | 38 | 1014.4 |
| 20260505184542 | 73 | 233 | 3.0 | 11.0 | 0.00 | 0.00 | 0.00 | 40 | 1014.4 |
| 20260505184039 | 74 | 274 | 8.0 | 14.0 | 0.00 | 0.00 | 0.00 | 40 | 1014.5 |
| 20260505183536 | 74 | 303 | 4.0 | 7.0 | 0.00 | 0.00 | 0.00 | 41 | 1014.4 |
| 20260505183034 | 74 | 190 | 5.0 | 12.0 | 0.00 | 0.00 | 0.00 | 40 | 1014.7 |
| 20260505182530 | 74 | 243 | 6.0 | 15.0 | 0.00 | 0.00 | 0.00 | 40 | 1014.6 |
| 20260505182026 | 74 | 272 | 8.0 | 11.0 | 0.00 | 0.00 | 0.00 | 39 | 1014.6 |
| 20260505181523 | 75 | 247 | 5.0 | 11.0 | 0.00 | 0.00 | 0.00 | 38 | 1014.4 |
| 20260505181021 | 73 | 255 | 7.0 | 13.0 | 0.00 | 0.00 | 0.00 | 41 | 1014.4 |
| 20260505180516 | 74 | 268 | 6.0 | 8.0 | 0.00 | 0.00 | 0.00 | 40 | 1014.6 |
| 20260505180015 | 74 | 204 | 3.0 | 8.0 | 0.00 | 0.00 | 0.00 | 41 | 1014.7 |
| 20260505175509 | 73 | 231 | 4.0 | 5.0 | 0.00 | 0.00 | 0.00 | 43 | 1014.4 |
| 20260505175006 | 73 | 259 | 7.0 | 7.0 | 0.00 | 0.00 | 0.00 | 43 | 1014.6 |
| 20260505174503 | 73 | 153 | 4.0 | 14.0 | 0.00 | 0.00 | 0.00 | 44 | 1014.5 |
| 20260505173959 | 74 | 150 | 2.0 | 7.0 | 0.00 | 0.00 | 0.00 | 46 | 1014.7 |
| 20260505173455 | 73 | 183 | 3.0 | 8.0 | 0.00 | 0.00 | 0.00 | 43 | 1014.8 |
| 20260505172953 | 74 | 202 | 2.0 | 21.0 | 0.00 | 0.00 | 0.00 | 45 | 1014.6 |
| 20260505172451 | 73 | 209 | 6.0 | 9.0 | 0.00 | 0.00 | 0.00 | 46 | 1014.8 |
| 20260505171951 | 71 | 265 | 4.0 | 8.0 | 0.00 | 0.00 | 0.00 | 48 | 1014.7 |
| 20260505171447 | 71 | 231 | 6.0 | 14.0 | 0.00 | 0.00 | 0.00 | 48 | 1014.7 |
| 20260505170944 | 71 | 193 | 4.0 | 8.0 | 0.00 | 0.00 | 0.00 | 48 | 1014.7 |
| 20260505170441 | 70 | 231 | 4.0 | 6.0 | 0.00 | 0.00 | 0.00 | 50 | 1014.6 |
| 20260505165936 | 70 | 262 | 6.0 | 9.0 | 0.00 | 0.00 | 0.00 | 50 | 1014.9 |
| 20260505165432 | 71 | 228 | 3.0 | 9.0 | 0.00 | 0.00 | 0.00 | 49 | 1014.8 |
| 20260505164927 | 70 | 239 | 4.0 | 9.0 | 0.00 | 0.00 | 0.00 | 51 | 1014.8 |
| 20260505164424 | 70 | 258 | 4.0 | 6.0 | 0.00 | 0.00 | 0.00 | 51 | 1014.7 |
| 20260505163922 | 71 | 252 | 5.0 | 10.0 | 0.00 | 0.00 | 0.00 | 50 | 1014.7 |
| 20260505163421 | 71 | 225 | 3.0 | 6.0 | 0.00 | 0.00 | 0.00 | 50 | 1014.5 |
| 20260505162919 | 70 | 151 | 0.0 | 5.0 | 0.00 | 0.00 | 0.00 | 51 | 1014.7 |
| 20260505162415 | 69 | 238 | 3.0 | 7.0 | 0.00 | 0.00 | 0.00 | 53 | 1014.8 |
| 20260505161912 | 70 | 202 | 3.0 | 6.0 | 0.00 | 0.00 | 0.00 | 52 | 1014.9 |
| 20260505161409 | 71 | 223 | 3.0 | 6.0 | 0.00 | 0.00 | 0.00 | 53 | 1014.8 |
| 20260505160907 | 71 | 237 | 7.0 | 10.0 | 0.00 | 0.00 | 0.00 | 52 | 1014.8 |
| 20260505160404 | 70 | 258 | 5.0 | 7.0 | 0.00 | 0.00 | 0.00 | 53 | 1014.9 |
| 20260505153343 | 68 | 217 | 3.0 | 6.0 | 0.00 | 0.00 | 0.00 | 55 | 1014.9 |
| 20260505152840 | 68 | 224 | 3.0 | 5.0 | 0.00 | 0.00 | 0.00 | 54 | 1014.9 |
| 20260505152337 | 69 | 199 | 3.0 | 5.0 | 0.00 | 0.00 | 0.00 | 54 | 1014.7 |
| 20260505151831 | 69 | 195 | 2.0 | 3.0 | 0.00 | 0.00 | 0.00 | 54 | 1014.7 |
| 20260505151328 | 68 | 193 | 0.0 | 4.0 | 0.00 | 0.00 | 0.00 | 56 | 1014.5 |
| 20260505150825 | 67 | 122 | 0.0 | 3.0 | 0.00 | 0.00 | 0.00 | 57 | 1014.8 |
| 20260505150322 | 67 | 245 | 3.0 | 4.0 | 0.00 | 0.00 | 0.00 | 57 | 1014.7 |
| 20260505140246 | 66 | 196 | 2.0 | 3.0 | 0.00 | 0.00 | 0.00 | 65 | 1014.5 |
| 20260505130210 | 64 | 161 | 2.0 | 6.0 | 0.00 | 0.00 | 0.00 | 70 | 1014.1 |
| 20260505124700 | 64 | 165 | 1.0 | 3.0 | 0.00 | 0.00 | 0.00 | 70 | 1013.8 |
| 20260505124157 | 64 | 173 | 2.0 | 5.0 | 0.00 | 0.00 | 0.00 | 70 | 1014.0 |
| 20260505123653 | 64 | 175 | 1.0 | 4.0 | 0.00 | 0.00 | 0.00 | 70 | 1014.0 |
| 20260505123150 | 64 | 185 | 0.0 | 7.0 | 0.00 | 0.00 | 0.00 | 69 | 1013.8 |
| 20260505122646 | 64 | 163 | 3.0 | 6.0 | 0.00 | 0.00 | 0.00 | 69 | 1013.8 |
| 20260505122143 | 64 | 191 | 2.0 | 4.0 | 0.00 | 0.00 | 0.00 | 68 | 1013.6 |
| 20260505121640 | 64 | 181 | 2.0 | 5.0 | 0.00 | 0.00 | 0.00 | 68 | 1014.0 |
| 20260505121137 | 64 | 188 | 2.0 | 6.0 | 0.00 | 0.00 | 0.00 | 68 | 1013.7 |
| 20260505120627 | 64 | 198 | 0.0 | 5.0 | 0.00 | 0.00 | 0.00 | 68 | 1013.7 |
| 20260505120123 | 64 | 175 | 0.0 | 4.0 | 0.00 | 0.00 | 0.00 | 68 | 1013.5 |
| 20260505115617 | 64 | 168 | 1.0 | 6.0 | 0.00 | 0.00 | 0.00 | 68 | 1013.4 |
| 20260505115115 | 64 | 170 | 1.0 | 6.0 | 0.00 | 0.00 | 0.00 | 68 | 1013.5 |
| 20260505114612 | 64 | 180 | 2.0 | 5.0 | 0.00 | 0.00 | 0.00 | 68 | 1014.0 |
| 20260505114108 | 64 | 156 | 2.0 | 4.0 | 0.00 | 0.00 | 0.00 | 67 | 1013.7 |
| 20260505113605 | 64 | 140 | 2.0 | 3.0 | 0.00 | 0.00 | 0.00 | 66 | 1013.7 |
| 20260505113101 | 64 | 138 | 3.0 | 7.0 | 0.00 | 0.00 | 0.00 | 64 | 1013.7 |
| 20260505112557 | 64 | 177 | 0.0 | 3.0 | 0.00 | 0.00 | 0.00 | 64 | 1013.5 |
| 20260505112056 | 64 | 121 | 2.0 | 5.0 | 0.00 | 0.00 | 0.00 | 63 | 1013.4 |
| 20260505111555 | 65 | 148 | 3.0 | 4.0 | 0.00 | 0.00 | 0.00 | 63 | 1013.5 |
| 20260505111051 | 65 | 143 | 2.0 | 8.0 | 0.00 | 0.00 | 0.00 | 62 | 1013.3 |
| 20260505110548 | 65 | 131 | 3.0 | 6.0 | 0.00 | 0.00 | 0.00 | 62 | 1013.7 |
| 20260505102020 | 66 | 141 | 5.0 | 8.0 | 0.00 | 0.00 | 0.00 | 59 | 1014.5 |
| 20260505101519 | 66 | 135 | 6.0 | 7.0 | 0.00 | 0.00 | 0.00 | 58 | 1014.4 |
| 20260505101015 | 66 | 174 | 2.0 | 5.0 | 0.00 | 0.00 | 0.00 | 58 | 1014.2 |
| 20260505100507 | 66 | 149 | 1.0 | 6.0 | 0.00 | 0.00 | 0.00 | 58 | 1014.2 |
| 20260505100004 | 66 | 162 | 1.0 | 8.0 | 0.00 | 0.00 | 0.00 | 58 | 1014.2 |
| 20260505095500 | 66 | 189 | 2.0 | 6.0 | 0.00 | 0.00 | 0.00 | 59 | 1014.3 |
| 20260505094956 | 66 | 174 | 1.0 | 7.0 | 0.00 | 0.00 | 0.00 | 59 | 1014.4 |
| 20260505094453 | 66 | 185 | 1.0 | 5.0 | 0.00 | 0.00 | 0.00 | 59 | 1014.5 |
| 20260505093949 | 66 | 212 | 5.0 | 7.0 | 0.00 | 0.00 | 0.00 | 59 | 1014.2 |
| 20260505093446 | 66 | 207 | 2.0 | 8.0 | 0.00 | 0.00 | 0.00 | 59 | 1014.5 |
| 20260505092943 | 66 | 163 | 3.0 | 6.0 | 0.00 | 0.00 | 0.00 | 58 | 1014.7 |
| 20260505092441 | 66 | 154 | 2.0 | 7.0 | 0.00 | 0.00 | 0.00 | 59 | 1014.4 |
| 20260505091938 | 66 | 142 | 4.0 | 8.0 | 0.00 | 0.00 | 0.00 | 58 | 1014.6 |
| 20260505091436 | 66 | 161 | 5.0 | 8.0 | 0.00 | 0.00 | 0.00 | 58 | 1014.8 |
| 20260505090933 | 66 | 151 | 3.0 | 7.0 | 0.00 | 0.00 | 0.00 | 57 | 1014.6 |
| 20260505090432 | 66 | 163 | 2.0 | 4.0 | 0.00 | 0.00 | 0.00 | 58 | 1014.7 |
| 20260505085928 | 66 | 209 | 0.0 | 10.0 | 0.00 | 0.00 | 0.00 | 58 | 1014.6 |
| 20260505085426 | 66 | 164 | 2.0 | 7.0 | 0.00 | 0.00 | 0.00 | 57 | 1014.7 |
| 20260505084925 | 67 | 127 | 5.0 | 7.0 | 0.00 | 0.00 | 0.00 | 56 | 1014.8 |
| 20260505084422 | 67 | 149 | 1.0 | 6.0 | 0.00 | 0.00 | 0.00 | 56 | 1014.8 |
| 20260505083920 | 67 | 199 | 3.0 | 15.0 | 0.00 | 0.00 | 0.00 | 56 | 1015.1 |
| 20260505083417 | 67 | 205 | 2.0 | 6.0 | 0.00 | 0.00 | 0.00 | 56 | 1015.1 |
| 20260505082913 | 67 | 156 | 4.0 | 15.0 | 0.00 | 0.00 | 0.00 | 55 | 1015.1 |
| 20260505082409 | 68 | 160 | 3.0 | 7.0 | 0.00 | 0.00 | 0.00 | 54 | 1015.3 |
| 20260505081906 | 68 | 191 | 4.0 | 11.0 | 0.00 | 0.00 | 0.00 | 52 | 1015.5 |
| 20260505081403 | 68 | 164 | 3.0 | 10.0 | 0.00 | 0.00 | 0.00 | 51 | 1015.4 |
| 20260505080900 | 68 | 155 | 4.0 | 11.0 | 0.00 | 0.00 | 0.00 | 51 | 1015.1 |
| 20260505080355 | 68 | 180 | 2.0 | 11.0 | 0.00 | 0.00 | 0.00 | 50 | 1015.2 |
| 20260505075851 | 68 | 139 | 4.0 | 7.0 | 0.00 | 0.00 | 0.00 | 49 | 1015.3 |
| 20260505075348 | 68 | 173 | 2.0 | 10.0 | 0.00 | 0.00 | 0.00 | 48 | 1015.0 |
| 20260505074846 | 68 | 158 | 3.0 | 10.0 | 0.00 | 0.00 | 0.00 | 48 | 1015.4 |